Flight Information

DEPARTURE
MONTEREY, CA
Elevation:
256
Runways:
10L/28R - 3503x60 - ASPH-F
10R/28L - 7175x150 - ASPH-G
Active PE Departure:
10L - 10R
Current PE ATIS:
N
Altimeter:
29.99
Remarks:
V F R DEPARTURES CONTACT CLEARANCE DELIVERY, ADVISE ON COURSE HEADING, ALTITUDE, AND IF FLIGHT FOLLOWING IS REQUESTED.
ATIS:
119.25 831-375-7433
Clearance Delivery:
135.45
Ground:
120.875
Tower:
MONTEREY TOWER 118.4
DESTINATION
,
Elevation:
TPA:
1000 (est.)


6903.6 NM70° True-15° Var54° HDG

Flight Plan:
(click to file on line)

1. Type
2. Aircraft Identification
3. Aircraft Type / Special Equipment
4. True Airspeed
kts
5. Departure Airport
(ICAO code)
6. Arriving Airport
(ICAO code)
7. Cruising Altitude
ft
8. Alternate Airport
(ICAO code)
9. Route of Flight
10. Remarks


00:00:00 Departure ATIS: Destination ATIS:

Clearance Limit:
Route:
Altitude: Expect in minutes
Frequency:
Transponder: (7500 Hijack / 7600 Lost Comms / 7700 Emergency)


KMRY 221554Z 25005KT 10SM BKN009 OVC015 10/09 A2999 RMK AO2 RAE25 SLP168 P0002 T01000089
Time: 2021-01-22T15:54:00Z
1611332406
Winds: 250 @ 5 kts
Visibility: 10.0 sm
Clouds (AGL): BKN 900
OVC 1500
Temperature: 10.0 C
Dew Point: 8.9 C
Pressure: 29.991142 in Hgbr


Notes:

Data extracted from FAA Digital Chart Supplement. Effective: 0901Z Thursday, Dec 31, 2020 to 0901Z Thursday, Jan 28, 2021
Current ATIS data is provided courtisy of PilotEdge.